星链-31598 (STARLINK-31598 )

导读

STARLINK-31598是美国太空探索技术公司(SpaceX)星链互联网卫星星座的一员,于2024年3月19日发射升空,归属星链Gen2架构。星链项目旨在为全球提供高速低延迟卫星互联网服务,该卫星入轨后,将进一步拓展星链星座的覆盖范围与服务能力,目前该卫星已在轨运行近两年,支撑全球多地的卫星互联网服务。

Basic Information
目录编号:
59263
目录名称:
STARLINK-31598
国际标识:
2024-050K
轨道中心:
EARTH
卫星名称:
星链-31598
卫星全名:
星链-31598 (STARLINK-31598 )
卫星状态:
在轨 (已飞行821 天)
发射日期:
2024-03-19 UTC
国别 :
美国 (US)
星等 :
--
Orbit Information
数据来源 国际轨道数据 AOE轨道数据
星历时间 2026-06-17T13:03:04+0800
1天前
查看轨道信息
2026-06-17T00:00:00+0800
1天前
查看轨道信息
半长轴 6840.831km 6840.892km
偏心率 0.0001229 0.0001201
轨道倾角 53.162° 53.162°
近地点辐角 92.069° 78.763°
升交点赤经 78.852° 81.398°
平近点角 268.045° 155.732°
近地点 461.853km 461.933km
远地点 463.535km 463.577km
周期 93.848分钟 93.849分钟
每日圈数 15.344032 15.343826
Detailed Information
固有亮度:
5
最大亮度:
0.3
卫星平台:
Starlink v2.0 mini
覆盖范围:
全球
运营商:
太空探索技术公司
运营商所在国:
美国
制造商(研发单位):
太空探索技术公司
制造商所在国:
美国
使用方式:
暂无
Satellite Introduction
星链(Starlink)计划是由太空探索技术公司(SpaceX)提出的一个巨型低轨卫星互联网星座项目,计划在2019年至2024年间在太空搭建由约1.2万颗卫星组成的“星链”网络,其中1584颗将部署在地球上空550千米处的近地轨道,并从2020年开始工作。该卫星仍在工作。
2D Orbit Map
3D Orbit Map
Orbit Altitude Analysis Chart
Orbit Inclination Analysis Chart
Orbit Comprehensive Analysis Chart
View Comprehensive Chart